Location: Flynn Junction
(40.1314°N, 99.5162°W)
Time: 21:54:31
(UTC+00:00)

CZ-4B R/B - Pass Details

Date: 29 October 2020
Orbit: 489 x 649 km, 97.9° (Epoch: 30 November)

Event Time Altitude Azimuth Distance (km) Brightness Sun altitude
Rises 12:24:04 0° 3° (N) 2,766 6.3 -8.4°
Reaches altitude 10° 12:26:17 10° 354° (N) 1,892 5.4 -7.9°
Maximum altitude 12:30:02 36° 288° (WNW) 952 3.5 -7.2°
Drops below altitude 10° 12:33:57 10° 222° (SW) 1,965 5.4 -6.5°
Sets 12:36:18 0° 214° (SW) 2,889 6.3 -6.1°
